SB KEPS @ AMSAT $ORB26172.1 2Line Orbital Elements 26172.AMSAT QST de W1STR AMSAT Orbital Elements for Amateur Satellites in TLE Format From Orbital Analysis Office New England Sci-Tech STEM Education Center Natick MA June 21, 2026 To all radio amateurs These element sets describe the orbits of various satellites in use by the amateur radio community. For details see: www.amsat.org/keplerian-elements-formats/ A daily update of element sets is available at: www.amsat.org/tle/daily-bulletin.txt or without bulletin text: www.amsat.org/tle/dailytle.txt AO-07 1 07530U 74089B 26171.32384949 -.00000048 00000-0 -10319-4 0 9994 2 07530 101.9899 184.6033 0012609 124.3014 247.3322 12.53698149360912 UO-11 1 14781U 84021B 26171.44314262 .00001042 00000-0 11163-3 0 9991 2 14781 97.8059 136.9814 0007936 162.0618 198.0882 14.90789882257615 LO-19 1 20442U 90005G 26171.32155512 .00000068 00000-0 41169-4 0 9996 2 20442 98.8848 193.2136 0011289 191.6338 168.4586 14.34123955902844 AO-27 1 22825U 93061C 26171.42614367 .00000064 00000-0 41444-4 0 9999 2 22825 98.6879 238.8386 0009542 91.4815 268.7461 14.30943014707461 FO-29 1 24278U 96046B 26171.34242250 -.00000016 00000-0 16133-4 0 9993 2 24278 98.5237 19.7822 0350925 88.2682 275.8612 13.53274552473592 GO-32 1 25397U 98043D 26171.43605319 .00000032 00000-0 33890-4 0 9990 2 25397 99.0068 164.2767 0001219 156.5266 203.5967 14.24428915451795 ISS 1 25544U 98067A 26171.41461525 .00008813 00000-0 16600-3 0 9991 2 25544 51.6327 284.1189 0004557 208.5194 151.5545 15.49333088572250 NO-44 1 26931U 01043C 26171.44204659 .00000049 00000-0 49145-4 0 9990 2 26931 67.0502 235.8536 0006064 264.6719 95.3691 14.31957058290913 SO-50 1 27607U 02058C 26171.45947406 .00000719 00000-0 10244-3 0 9994 2 27607 64.5513 118.8607 0075194 261.8620 97.3951 14.83052787264944 CO-55 1 27844U 03031E 26170.56610412 .00000202 00000-0 10624-3 0 9993 2 27844 98.6736 179.0951 0009689 171.1603 188.9749 14.24336935192018 RS-22 1 27939U 03042A 26172.22355046 .00000569 00000-0 95873-4 0 9990 2 27939 98.3473 356.6957 0009958 254.9678 192.1125 14.73471888216145 CO-65 1 32785U 08021C 26171.43070376 .00004727 00000-0 29901-3 0 9997 2 32785 97.8278 152.9166 0009448 28.6866 331.4880 15.09477800985683 CO-66 1 32791U 08021J 26170.94270999 .00015827 00000-0 50132-3 0 9995 2 32791 97.7524 168.9721 0000692 347.0777 13.0446 15.32829868987716 RS-30 1 32953U 08025A 26172.20284297 .00000062 00000-0 37506-3 0 9991 2 32953 82.5043 352.9413 0018691 304.6657 55.2661 12.43179624820193 SRMSAT 1 37841U 11058D 26171.35085059 .00000352 00000-0 47312-4 0 9991 2 37841 19.9729 40.3181 0011727 238.5935 283.9086 14.11576136758261 ZACUBE-1 1 39417U 13066B 26171.40676969 .00002330 00000-0 18337-3 0 9997 2 39417 97.8070 133.7603 0041215 236.5821 123.1458 15.01203183681216 Delfi-N3xt 1 39428U 13066N 26171.32352793 .00004874 00000-0 42647-3 0 9992 2 39428 97.8333 91.6316 0073876 194.8900 165.0146 14.95104097675099 GOMX-1 1 39430U 13066Q 26172.13535552 .00001368 00000-0 21034-3 0 9993 2 39430 97.6479 12.3485 0130061 65.0406 296.4248 14.69471659670491 LO-74 1 39440U 13066AA 26171.34547412 .00004187 00000-0 38759-3 0 9998 2 39440 97.8908 120.3368 0058172 18.8863 341.4496 14.93786433677462 AO-73 1 39444U 13066AE 26171.43726984 .00004737 00000-0 29523-3 0 9995 2 39444 97.8276 142.9507 0035961 189.5491 170.5058 15.09520967680154 DTUSAT-2 1 40030U 14033W 26170.94581646 .00005960 00000-0 32260-3 0 9993 2 40030 98.0865 168.8476 0006937 214.2385 145.8399 15.15045561653102 LILACSAT-2 1 40908U 15049K 26172.14202534 .00015389 00000-0 26125-3 0 9994 2 40908 97.4642 209.1342 0005797 226.5546 133.5224 15.51556704596362 Horyu-4 1 41340U 16012D 26171.37382522 .00528215 11166-3 10448-2 0 9991 2 41340 30.9842 55.5784 0006572 292.5150 67.4817 15.98761555571321 Lapan A3 1 41603U 16040E 26172.23783620 .00002603 00000-0 83573-4 0 9995 2 41603 97.1492 168.2503 0010389 12.1031 348.0460 15.33126076555433 CAS-2T 1 41847U 16066G 26171.21882669 .00001296 00000-0 18865-3 0 9991 2 41847 98.3821 246.9206 0342870 120.3110 243.2471 14.44702954505236 TechnoSat 1 42829U 17042E 26171.44071003 .00002691 00000-0 19322-3 0 9993 2 42829 97.4297 328.9745 0019198 84.0647 276.2768 15.04979783487190 AO-91 1 43017U 17073E 26171.18457471 .00006691 00000-0 29340-3 0 9990 2 43017 97.4696 38.3374 0149318 318.7924 40.2110 15.12753215465843 S-Net D 1 43186U 18014G 26171.29880828 .00004087 00000-0 21192-3 0 9995 2 43186 97.5356 76.0698 0008631 20.4965 339.6613 15.16696846459235 S-Net B 1 43187U 18014H 26171.44227345 .00003824 00000-0 19866-3 0 9995 2 43187 97.5362 76.1989 0009101 14.9277 345.2223 15.16668142459254 S-Net A 1 43188U 18014J 26171.29766920 .00004140 00000-0 21459-3 0 9999 2 43188 97.5373 76.2647 0008975 16.0073 344.1441 15.16704943459232 S-Net C 1 43189U 18014K 26171.31421336 .00003742 00000-0 19448-3 0 9994 2 43189 97.5390 76.3562 0010128 7.5265 352.6118 15.16659336457788 Ten-Koh 1 43677U 18084G 26171.45254676 .00001314 00000-0 10266-3 0 9991 2 43677 98.0770 3.9542 0011523 104.7855 255.4646 15.02952458416650 PO-101 1 43678U 18084H 26172.17112333 .00001865 00000-0 15313-3 0 9994 2 43678 98.1193 8.5521 0012811 157.4667 202.7120 15.00467135416817 QO-100 1 43700U 18090A 26171.32582803 .00000139 00000-0 00000+0 0 9992 2 43700 0.0162 58.1464 0001829 66.6264 286.8419 1.00272471 27701 MinXSS-2 1 43758U 18099A 26171.45535390 .00031099 00000-0 61393-3 0 9992 2 43758 97.4527 247.8358 0006930 241.7102 118.3448 15.47086323414631 AO-95 1 43770U 18099N 26171.42028350 .00009032 00000-0 34569-3 0 9993 2 43770 97.4379 231.6550 0007644 345.3894 14.7122 15.26768122413714 SNUSat 2 1 43782U 18099AA 26171.09486323 .00006937 00000-0 30769-3 0 9996 2 43782 97.4055 224.4340 0008538 286.2337 73.7960 15.21873725413472 SnugLite 1 43784U 18099AC 26171.41973738 .00009950 00000-0 37540-3 0 9997 2 43784 97.3862 225.6679 0001218 262.4463 97.6638 15.27237635413816 ITASat 1 1 43786U 18099AE 26171.11764083 .00005183 00000-0 24987-3 0 9992 2 43786 97.4025 222.5709 0011788 349.8108 10.2885 15.19087166413356 EAGLET 1 1 43790U 18099AJ 26170.69834225 .00003186 00000-0 18414-3 0 9994 2 43790 97.4228 220.3006 0010408 345.2076 14.8849 15.12954488412716 ESEO 1 43792U 18099AL 26171.37328516 .00001363 00000-0 10205-3 0 9998 2 43792 97.3977 208.6251 0010929 329.3386 30.7201 15.04258251412281 JO-97 1 43803U 18099AX 26171.42320771 .00014139 00000-0 43536-3 0 9990 2 43803 97.4124 234.2689 0004531 246.7819 113.2947 15.33738605414121 Suomi 100 1 43804U 18099AY 26171.41419441 .00010144 00000-0 36823-3 0 9996 2 43804 97.4182 231.7956 0008433 265.0966 94.9311 15.28477327413918 ISAT 1 43879U 18111D 26171.35812858 .00088165 00000-0 86454-3 0 9998 2 43879 97.5871 106.8241 0001652 159.9302 200.2023 15.65800337411660 UWE-4 1 43880U 18111E 26170.73909040 .00028000 00000-0 56934-3 0 9993 2 43880 97.5852 99.2477 0005068 330.7950 29.3015 15.46259003411174 Sparrow 1 43881U 18111F 26171.37163720 .00155211 00000-0 10166-2 0 9993 2 43881 97.6107 112.5154 0004538 117.8281 242.3444 15.75315378411872 Prox-1 1 44339U 19036A 26171.00267406 .00011723 00000-0 11377-2 0 9999 2 44339 23.9947 95.4433 0005845 68.7086 291.4037 14.90666191373893 Taurus 1 1 44530U 19059C 26172.18501797 .00003032 00000-0 49028-3 0 9990 2 44530 98.6426 337.2607 0007248 301.4948 58.5548 14.72125560359231 TO-108 1 44881U 19093C 26172.15081538 .00000768 00000-0 92672-4 0 9997 2 44881 97.7524 244.2863 0015029 75.6167 284.6716 14.86524125352001 RS-44 1 44909U 19096E 26171.44517356 .00000024 00000-0 45367-4 0 9998 2 44909 82.5221 337.5395 0218289 136.5763 225.2766 12.79748893302760 SALSAT 1 46495U 20068K 26170.95810387 .00006379 00000-0 22355-3 0 9996 2 46495 97.8854 174.1914 0007893 296.5001 63.5428 15.29832652315783 CSS (TIANHE-1) 1 48274U 21035A 26171.43213816 .00020661 00000-0 24268-3 0 9991 2 48274 41.4693 302.2526 0007384 105.8714 254.2939 15.60937952293670 CUTE 1 49263U 21088D 26171.26453892 .00137923 93909-5 37887-3 0 9995 2 49263 97.4181 270.8579 0007619 223.6442 136.4230 15.93975753263048 TeikyoSat 4 1 49396U 21102B 26170.97106405 .00001459 00000-0 94715-4 0 9994 2 49396 97.3669 200.3463 0010353 285.6004 74.4082 15.09516085253148 Z-Sat 1 49399U 21102E 26172.15237064 .00003301 00000-0 16384-3 0 9998 2 49399 97.3324 207.3549 0015192 229.3360 130.6555 15.18288980254047 KOSEN 1 1 49402U 21102H 26171.35293286 .00006026 00000-0 23046-3 0 9992 2 49402 97.3184 213.4488 0013547 188.9556 171.1443 15.26870949254503 HO-113 1 50466U 21131B 26172.21975847 .00000356 00000-0 12371-3 0 9991 2 50466 98.4981 264.5877 0005387 87.7970 272.3836 14.41360419235691 SNUGLITE 2 1 52899U 22065F 26171.37922855 .00000681 00000-0 13817-3 0 9994 2 52899 98.2207 316.2040 0007803 23.7444 336.4117 14.64352373211468 UmKA 1 (RS40S) 1 57172U 23091G 26171.38369249 .00005161 00000-0 23636-3 0 9994 2 57172 97.5046 230.0688 0014343 107.7929 252.4872 15.20848788164497 CubeBel-2 (EU11S) 1 57175U 23091K 26171.45565892 .00011356 00000-0 40231-3 0 9990 2 57175 97.5045 234.7019 0011300 104.9308 255.3184 15.29219854164806 RS-38S 1 57189U 23091Z 26171.46992765 .00014554 00000-0 41535-3 0 9990 2 57189 97.5086 241.0213 0008064 68.0251 292.1849 15.36113853165193 SONATE-2 1 59112U 24043Q 26171.41218347 .00036201 00000-0 46629-3 0 9990 2 59112 97.5542 322.0062 0007216 184.8807 175.2380 15.58929844128393 GRBBeta 1 60237U 24128C 26171.40570095 .00002226 00000-0 16133-3 0 9991 2 60237 61.9881 204.9739 0040241 135.3081 225.1267 15.06654606106752 Curium One 1 60242U 24128H 26171.40948891 .00005243 00000-0 30654-3 0 9996 2 60242 61.9767 194.3615 0039427 131.3824 229.0673 15.12543666106946 ROBUSTA-3A 1 60243U 24128J 26171.44217900 .00004267 00000-0 25756-3 0 9993 2 60243 61.9846 196.7324 0041011 128.5967 231.8813 15.11702693106916 CatSat 1 60246U 24125J 26171.02851399 .00058542 00000-0 74280-3 0 9994 2 60246 97.2084 23.5660 0022422 169.4284 190.7449 15.58946359107836 HYPERVIEW-1G (RS66S) 1 61772U 24199AP 26171.11001400 .00125192 00000-0 78003-3 0 9993 2 61772 97.2851 50.9798 0004715 207.8229 152.2786 15.76549631135133 AO-123 1 61781U 24199AY 26171.42296523 .00006434 00000-0 18716-3 0 9991 2 61781 97.2995 40.0642 0012089 300.9779 59.0277 15.35714948134428 JINJUSat 1B 1 63210U 25052A 26170.69073646 .00013525 00000-0 41876-3 0 9998 2 63210 97.3998 67.4488 0005436 85.5087 274.6776 15.33568631 70486 NUSHSAT 1 1 63211U 25052B 26171.18640506 .00018481 00000-0 52750-3 0 9998 2 63211 97.3973 68.5214 0005173 87.7596 272.4240 15.36071329 70608 TEVEL2-4 1 63213U 25052D 26171.44236345 .00016057 00000-0 47906-3 0 9995 2 63213 97.3895 67.8392 0004959 96.9497 263.2310 15.34707854 70619 TEVEL2-5 1 63214U 25052E 26171.26760575 .00015978 00000-0 47945-3 0 9997 2 63214 97.3892 67.6107 0004895 98.9294 261.2503 15.34527610 70583 TEVEL2-6 1 63215U 25052F 26171.28000723 .00015976 00000-0 47994-3 0 9994 2 63215 97.3898 67.6078 0004759 99.4633 260.7149 15.34492782 70580 TEVEL2-1 1 63217U 25052H 26171.17964496 .00015594 00000-0 47659-3 0 9994 2 63217 97.3873 67.1285 0004873 107.5627 252.6148 15.33952529 70556 TEVEL2-3 1 63218U 25052J 26171.43510259 .00015215 00000-0 46415-3 0 9997 2 63218 97.3872 67.4058 0004851 107.4306 252.7467 15.34015837 70598 TEVEL2-2 1 63219U 25052K 26171.44087273 .00015148 00000-0 46281-3 0 9990 2 63219 97.3872 67.3917 0004899 108.0209 252.1568 15.33968526 70590 TEVEL2-9 1 63237U 25052AD 26171.42250345 .00013890 00000-0 45158-3 0 9994 2 63237 97.3932 66.7416 0008057 121.8629 238.3398 15.31981442 70523 TEVEL2-7 1 63238U 25052AE 26171.20271571 .00013367 00000-0 43885-3 0 9999 2 63238 97.3934 66.4373 0008076 122.8867 237.3153 15.31676701 70483 TEVEL2-8 1 63239U 25052AF 26170.68834909 .00012538 00000-0 41221-3 0 9992 2 63239 97.3937 65.9009 0008075 124.5955 235.6049 15.31647647 70407 SPIRONE 1 66657U 25274H 26171.33677641 .00001688 00000-0 16531-3 0 9996 2 66657 97.7480 100.5829 0012359 11.8174 348.3333 14.93554664 30696 K-HERO 1 66660U 25274L 26170.73769811 .00001628 00000-0 15799-3 0 9993 2 66660 97.7486 100.1552 0014392 16.7711 343.3982 14.93969599 30619 SNUGLITE-III DURI 1 66661U 25274M 26171.32818201 .00001124 00000-0 11060-3 0 9996 2 66661 97.7484 100.7584 0014989 15.5195 344.6482 14.94009334 30706 SAKHACUBE-CHOLBON 1 67290U 25313AU 26170.45696629 .00007736 00000-0 31324-3 0 9990 2 67290 97.3931 245.4637 0008608 357.2855 2.8334 15.24922033 26320 RS95S (QMR-KWT-2) 1 67291U 25313AV 26170.70536872 .00011199 00000-0 43324-3 0 9993 2 67291 97.3925 245.8896 0007987 353.2594 6.8536 15.26346044 26377 Ten-Koh2 1 68261U 25241B 26171.42583064 .00004788 00000-0 20896-3 0 9991 2 68261 51.6704 304.2166 0005815 151.3267 208.8031 15.23935965 15404 JACK-002 1 68417U 26067B 26170.86158908 .00005090 00000-0 24354-3 0 9993 2 68417 97.4570 129.4189 0000163 167.0681 193.0558 15.19420860 12351 DISCO 2 1 68431U 26067R 26171.34440683 .00006749 00000-0 32462-3 0 9998 2 68431 97.4603 129.8842 0002500 38.3068 321.8343 15.19114251 12425 HADES-SA (SpinnyONE) 1 68446U 26067AG 26170.85664013 .00014903 00000-0 71102-3 0 9999 2 68446 97.4408 129.1130 0009324 75.2223 285.0044 15.19135217 12335 PARUS-6U1 1 68456U 26067AS 26171.35349334 .00004924 00000-0 24855-3 0 9997 2 68456 97.4554 129.6681 0007294 63.6865 296.5117 15.17545160 12418 SAL-E 1 68458U 26067AU 26171.34842208 .00006555 00000-0 32732-3 0 9991 2 68458 97.4477 129.5972 0007844 71.1717 289.0367 15.17794593 12417 FSI-SAT 2 1 68792U 26088A 26171.40682044 .00003327 00000-0 22652-3 0 9996 2 68792 97.5080 320.5852 0016078 96.7112 263.5946 15.06859588 8778 OrigamiSat 2 1 68795U 26088D 26171.34560186 .00010363 00000-0 66061-3 0 9994 2 68795 97.5085 320.6709 0016215 71.4280 288.8709 15.08799773 8775 ARICA 2 1 68796U 26088E 26171.41188868 .00003371 00000-0 21980-3 0 9998 2 68796 97.5072 320.7236 0017041 70.2764 290.0301 15.08450962 8788 WASEDA-SAT-ZERO-II 1 68797U 26088F 26171.40713634 .00004837 00000-0 31169-3 0 9991 2 68797 97.5070 320.7288 0016850 70.1739 290.1304 15.08674988 8782 MANGARO-II-Piscus 1 68798U 26088G 26171.39729625 .00002656 00000-0 17212-3 0 9997 2 68798 97.5077 320.7490 0020510 72.2845 288.0620 15.08804671 8785 IO-86 1 40931U 25360.30710720 .00000000 00000-0 12800-3 0 00 2 40931 6.0006 332.5373 0012733 338.8432 8.1437 14.79075515 01 LILIUM-4 1 71922C 26067AC 26089.50133053 -.00014632 00000+0 -74472-3 0 04 2 71922 97.4497 49.1617 0004341 5.9603 355.7042 15.16896692 16 /EX